[[{"header":{"parameterUnit":"m.s-1","parameterCategory":1,"la1":30.2991,"la2":30.254,"lo1":-89.0895,"lo2":-89.0444,"dy":0.0017,"dx":0.0017,"nx":28,"ny":28,"refTime":"2024-10-04T09:00:00:Z","depth":0,"parameterNumber":2,"parameterNumberName":"U-component_of_WINDS"},"data":[0,0,0,0,0,0,0,0,0,0,0,0,0,0,0,0,0,0,0,0,0,0,0,0,0,0,0,0,0,0,0,0,0,0,0,0,0,0,0,0,0,0,0,0,0,0,0,0,0,0,0,0,0,0,0,0,0,0,-1.4129,-1.4132,0,-1.4426,-1.4429,-1.4433,-1.4544,-1.4543,-1.4542,-1.4541,-1.4851,-1.486,-1.4869,0,0,0,0,0,0,0,0,0,0,0,0,0,-1.3665,-1.3673,-1.4128,-1.4132,-1.4136,-1.4425,-1.4429,-1.4434,-1.4544,-1.4543,-1.4541,-1.454,-1.4848,-1.4859,-1.487,0,0,0,0,0,0,0,0,0,0,0,0,0,-1.3905,-1.3675,-1.4128,-1.4226,-1.4237,-1.4425,-1.443,-1.4435,-1.4544,-1.4542,-1.4541,-1.454,-1.4845,-1.4858,-1.4872,-1.4985,0,0,-1.4914,-1.492,0,0,0,0,0,0,0,0,-1.3891,-1.3922,-1.4208,-1.4219,-1.4233,-1.4446,-1.438,-1.4619,-1.4544,-1.4428,-1.4541,-1.4539,-1.4718,-1.4742,-1.4801,-1.5,-1.5013,-1.4915,-1.4923,-1.4929,-1.4933,0,0,0,0,0,0,0,-1.3874,-1.3909,-1.4246,-1.4212,-1.4227,-1.4258,-1.429,-1.4426,-1.4578,-1.4438,-1.4446,-1.448,-1.4725,-1.4788,-1.4809,-1.5018,-1.4914,-1.4927,-1.4935,-1.4941,-1.5328,-1.533,0,0,0,0,0,0,-1.384,-1.3895,-1.4237,-1.4255,-1.4054,-1.4267,-1.4303,-1.4379,-1.4576,-1.4605,-1.4481,-1.4484,-1.4765,-1.4793,-1.4821,-1.4968,-1.4929,-1.4942,-1.495,-1.5326,-1.5329,-1.5331,0,0,0,0,0,0,-1.383,-1.387,-1.4225,-1.4078,-1.4125,-1.4276,-1.4361,-1.4386,-1.4449,-1.4609,-1.4637,-1.4517,-1.4765,-1.4801,-1.4944,-1.498,-1.4948,-1.4961,-1.5324,-1.5327,-1.533,-1.5263,0,0,0,0,0,0,-1.3816,-1.3865,-1.3908,-1.4078,-1.4132,-1.434,-1.4363,-1.4393,-1.4471,-1.4478,-1.465,-1.4677,-1.4767,-1.4923,-1.4957,-1.4999,-1.4971,-1.5321,-1.5325,-1.5329,-1.5262,-1.5263,-1.5264,0,0,0,0,0,-1.3799,-1.3878,-1.3909,-1.395,-1.4188,-1.4342,-1.4374,-1.4473,-1.4474,-1.4519,-1.4623,-1.4672,-1.4971,-1.4936,-1.4976,-1.5022,-1.5319,-1.5324,-1.5328,-1.5262,-1.5263,-1.5264,0,0,0,0,0,0,-1.371,-1.3902,-1.3939,-1.4074,-1.4191,-1.436,-1.442,-1.4471,-1.4591,-1.4593,-1.4714,-1.4752,-1.4885,-1.4969,-1.4926,-1.5145,-1.5149,-1.5162,-1.5084,-1.5087,-1.5087,-1.5064,-1.4983,0,0,0,0,0,-1.3705,-1.3812,-1.3975,-1.4079,-1.4135,-1.4267,-1.4338,-1.4405,-1.4532,-1.4582,-1.4696,-1.4819,-1.4941,-1.5019,-1.514,-1.5276,-1.5316,-1.5328,-1.5328,-1.5328,-1.5337,-1.5418,-1.5426,-1.5346,-1.5346,-1.5346,0,0,-1.3698,-1.3816,-1.3876,-1.4064,-1.4162,-1.4272,-1.4308,-1.4423,-1.4506,-1.46,-1.4741,-1.4829,-1.4975,-1.5115,-1.5182,-1.5189,-1.5369,-1.5334,-1.5332,-1.5343,-1.5424,-1.5431,-1.5437,-1.5349,-1.5349,-1.5348,0,0,-1.3741,-1.384,-1.3939,-1.4036,-1.4184,-1.4272,-1.4296,-1.4459,-1.452,-1.4663,-1.4737,-1.484,-1.5047,-1.5148,-1.5227,-1.5311,-1.5362,-1.5348,-1.5351,-1.5428,-1.5434,-1.5441,-1.5472,-1.5482,-1.5357,-1.5357,-1.5357,0,-1.3714,-1.388,-1.3983,-1.4094,-1.4176,-1.4265,-1.4367,-1.4458,-1.4638,-1.4694,-1.4698,-1.4962,-1.5066,-1.5232,-1.5252,-1.5313,-1.5346,-1.5328,-1.5425,-1.5432,-1.5439,-1.5471,-1.5482,-1.5354,-1.5354,-1.5355,-1.5355,0,-1.384,-1.3955,-1.4017,-1.4187,-1.4276,-1.4382,-1.4504,-1.4582,-1.4642,-1.4731,-1.4877,-1.5006,-1.5155,-1.52,-1.526,-1.5376,-1.5375,-1.5401,-1.5407,-1.5442,-1.5474,-1.5487,-1.535,-1.5351,-1.5352,-1.5353,0,0,-1.3833,-1.406,-1.4081,-1.416,-1.4331,-1.4423,-1.4535,-1.468,-1.4745,-1.4868,-1.4966,-1.5141,-1.5166,-1.5255,-1.5329,-1.5396,-1.5457,-1.5414,-1.542,-1.5418,-1.5594,-1.5573,-1.5585,-1.5492,-1.5494,-1.5496,-1.5582,0,-1.3899,-1.4098,-1.4196,-1.4355,-1.4464,-1.4551,-1.4649,-1.4766,-1.4853,-1.496,-1.5057,-1.5179,-1.5203,-1.5257,-1.5328,-1.5434,-1.5494,-1.5429,-1.5586,-1.559,-1.5546,-1.5602,-1.558,-1.5654,-1.5595,-1.5597,-1.5599,0,-1.4001,-1.4121,-1.429,-1.445,-1.4499,-1.4585,-1.4727,-1.4827,-1.4964,-1.5022,-1.5123,-1.5194,-1.5318,-1.5317,-1.5491,-1.5445,-1.5516,-1.5578,-1.5584,-1.5602,-1.5596,-1.5622,-1.568,-1.5691,-1.5619,-1.5617,-1.5616,0,-1.3979,-1.4184,-1.4312,-1.4377,-1.4567,-1.4625,-1.4708,-1.4843,-1.4924,-1.505,-1.5104,-1.5243,-1.5319,-1.5426,-1.5534,-1.5523,-1.5699,-1.5706,-1.5753,-1.5751,-1.5786,-1.5782,-1.5856,-1.5831,-1.5831,-1.5831,-1.583,0,-1.4042,-1.4142,-1.4305,-1.4383,-1.4499,-1.4613,-1.4725,-1.4815,-1.4935,-1.5035,-1.5121,-1.5213,-1.5351,-1.5462,-1.5548,-1.568,-1.5714,-1.5767,-1.5788,-1.5759,-1.5752,-1.5806,-1.5804,-1.5834,-1.5833,-1.5832,-1.5832,0,-1.4036,-1.4149,-1.4294,-1.4462,-1.4507,-1.4585,-1.4731,-1.4813,-1.4904,-1.503,-1.5066,-1.5211,-1.5346,-1.5465,-1.5645,-1.5703,-1.5839,-1.5866,-1.5792,-1.5803,-1.5844,-1.5839,-1.5956,-1.5978,-1.5937,-1.5937,-1.5937,0,-1.4068,-1.4147,-1.4324,-1.4396,-1.4476,-1.4591,-1.4675,-1.4791,-1.4875,-1.5038,-1.51,-1.5242,-1.5361,-1.5574,-1.5697,-1.5835,-1.5866,-1.5898,-1.5887,-1.5856,-1.5868,-1.5861,-1.5871,-1.5897,-1.5897,-1.5897,-1.5897,0,-1.4114,-1.4166,-1.4281,-1.4418,-1.4514,-1.4628,-1.4744,-1.4799,-1.4938,-1.5029,-1.5167,-1.5259,-1.5443,-1.5583,-1.5736,-1.5824,-1.5885,-1.5899,-1.5918,-1.5888,-1.5842,-1.5869,-1.5791,-1.5896,-1.5896,-1.5896,-1.5896,-1.5896,-1.4129,-1.4204,-1.4339,-1.4466,-1.4566,-1.4673,-1.4758,-1.4861,-1.4977,-1.5134,-1.5197,-1.5338,-1.5477,-1.5687,-1.5776,-1.5891,-1.5901,-1.5928,-1.5935,-1.5939,-1.5935,-1.5824,-1.5919,-1.592,-1.592,-1.592,-1.592,0,-1.4179,-1.4271,-1.4387,-1.4546,-1.4647,-1.4693,-1.4825,-1.4907,-1.5029,-1.5152,-1.5268,-1.5428,-1.5566,-1.57,-1.5845,-1.5911,-1.5943,-1.5945,-1.5942,-1.5962,-1.5917,-1.5886,-1.5918,-1.5918,-1.5917,-1.5917,-1.5917,-1.5917,-1.4217,-1.4346,-1.4415,-1.4596,-1.4689,-1.4826,-1.4898,-1.4999,-1.5097,-1.5272,-1.5386,-1.5472,-1.5601,-1.5756,-1.5885,-1.5922,-1.5972,-1.5967,-1.6011,-1.5966,-1.5965,-1.5963,-1.5935,-1.5977,-1.5977,-1.6047,-1.6047,-1.6048]},{"header":{"parameterUnit":"m.s-1","parameterCategory":1,"la1":30.2991,"la2":30.254,"lo1":-89.0895,"lo2":-89.0444,"dy":0.0017,"dx":0.0017,"nx":28,"ny":28,"refTime":"2024-10-04T09:00:00:Z","depth":0,"parameterNumber":3,"parameterNumberName":"V-component_of_WINDS"},"data":[0,0,0,0,0,0,0,0,0,0,0,0,0,0,0,0,0,0,0,0,0,0,0,0,0,0,0,0,0,0,0,0,0,0,0,0,0,0,0,0,0,0,0,0,0,0,0,0,0,0,0,0,0,0,0,0,0,0,1.9098,1.9099,0,1.915,1.9151,1.9152,1.9173,1.9173,1.9173,1.9172,1.9222,1.9224,1.9225,0,0,0,0,0,0,0,0,0,0,0,0,0,1.9017,1.9019,1.9098,1.9099,1.91,1.915,1.9151,1.9152,1.9173,1.9173,1.9173,1.9172,1.9222,1.9223,1.9225,0,0,0,0,0,0,0,0,0,0,0,0,0,1.9059,1.9019,1.9098,1.9116,1.9118,1.915,1.9151,1.9152,1.9173,1.9173,1.9173,1.9172,1.9221,1.9223,1.9225,1.9242,0,0,1.9232,1.9233,0,0,0,0,0,0,0,0,1.9057,1.9062,1.9113,1.9115,1.9118,1.9155,1.9141,1.9182,1.9173,1.9152,1.9172,1.9172,1.92,1.9204,1.9214,1.9244,1.9246,1.9232,1.9233,1.9234,1.9235,0,0,0,0,0,0,0,1.9054,1.906,1.9119,1.9114,1.9117,1.9122,1.9128,1.9149,1.9176,1.9154,1.9156,1.9162,1.9201,1.9212,1.9215,1.9247,1.9232,1.9234,1.9235,1.9236,1.9298,1.9298,0,0,0,0,0,0,1.9048,1.9057,1.9117,1.912,1.9086,1.9124,1.913,1.9143,1.9176,1.9181,1.9162,1.9162,1.9208,1.9212,1.9217,1.924,1.9234,1.9236,1.9238,1.9298,1.9298,1.9298,0,0,0,0,0,0,1.9046,1.9053,1.9115,1.9089,1.9098,1.9125,1.914,1.9144,1.9155,1.9182,1.9187,1.9167,1.9208,1.9214,1.9237,1.9242,1.9237,1.9239,1.9297,1.9298,1.9298,1.9286,0,0,0,0,0,0,1.9044,1.9052,1.9058,1.9089,1.9099,1.9134,1.914,1.9145,1.9159,1.916,1.9189,1.9193,1.9208,1.9233,1.9239,1.9245,1.9241,1.9297,1.9297,1.9298,1.9286,1.9286,1.9286,0,0,0,0,0,1.9041,1.9051,1.9059,1.9066,1.9107,1.9134,1.9139,1.9158,1.9159,1.9166,1.9184,1.9192,1.9241,1.9236,1.9242,1.9249,1.9296,1.9297,1.9298,1.9286,1.9286,1.9286,0,0,0,0,0,0,1.9017,1.9055,1.9064,1.9085,1.9106,1.9137,1.9146,1.9157,1.9177,1.9177,1.9199,1.9205,1.9226,1.924,1.9233,1.9269,1.927,1.9272,1.9258,1.9258,1.9259,1.9254,1.9243,0,0,0,0,0,1.9015,1.9034,1.9066,1.9081,1.9092,1.9118,1.913,1.9143,1.9165,1.9174,1.9193,1.9215,1.9235,1.9248,1.9268,1.9289,1.9296,1.9297,1.9297,1.9297,1.9298,1.9313,1.9314,1.9301,1.9301,1.9301,0,0,1.9009,1.9033,1.9043,1.9077,1.9095,1.9115,1.9125,1.9144,1.9159,1.9176,1.92,1.9216,1.9241,1.9264,1.9274,1.9275,1.9304,1.9298,1.9298,1.9299,1.9314,1.9315,1.9316,1.9302,1.9301,1.9301,0,0,1.9009,1.9028,1.9044,1.9064,1.9093,1.911,1.9114,1.9145,1.9157,1.9182,1.9197,1.9215,1.9249,1.9268,1.9281,1.9294,1.9303,1.9301,1.93,1.9314,1.9315,1.9316,1.9321,1.9323,1.9302,1.9302,1.9302,0,1.8998,1.9028,1.9051,1.9071,1.9087,1.9107,1.9124,1.9142,1.9175,1.9185,1.9187,1.9234,1.9252,1.928,1.9284,1.9294,1.9301,1.9296,1.9313,1.9314,1.9316,1.9321,1.9323,1.9301,1.9301,1.9301,1.9301,0,1.9014,1.9035,1.9045,1.9079,1.9096,1.9114,1.9141,1.9156,1.9169,1.9187,1.9213,1.9237,1.9264,1.9272,1.9283,1.9304,1.9304,1.9309,1.931,1.9316,1.9322,1.9324,1.9301,1.9301,1.9301,1.9301,0,0,1.8995,1.9046,1.9049,1.9067,1.9103,1.9119,1.914,1.9169,1.9182,1.9205,1.9224,1.9255,1.9262,1.9278,1.9293,1.9305,1.9316,1.931,1.9311,1.931,1.9342,1.9336,1.9338,1.9324,1.9324,1.9325,1.934,0,1.8999,1.9038,1.9062,1.909,1.9112,1.9134,1.9153,1.9177,1.9196,1.9217,1.9238,1.926,1.9267,1.9277,1.9291,1.9312,1.9323,1.9311,1.9341,1.9341,1.9332,1.9341,1.9335,1.9347,1.9342,1.9342,1.9342,0,1.9008,1.9034,1.9066,1.9103,1.9113,1.9129,1.9159,1.9179,1.9209,1.9222,1.9242,1.9258,1.9282,1.9284,1.9318,1.931,1.9325,1.9337,1.9339,1.934,1.9341,1.9343,1.9352,1.9353,1.9346,1.9346,1.9345,0,1.8992,1.9035,1.9061,1.9075,1.9119,1.913,1.9149,1.9179,1.9196,1.9222,1.9234,1.9263,1.9278,1.93,1.9324,1.9323,1.9356,1.9359,1.9368,1.9367,1.9371,1.937,1.9382,1.9382,1.9382,1.9382,1.9382,0,1.8993,1.9012,1.9055,1.907,1.9092,1.9121,1.9143,1.9163,1.9191,1.9211,1.9233,1.9251,1.9282,1.9305,1.9325,1.9351,1.9358,1.9369,1.9373,1.9366,1.9365,1.9374,1.9373,1.9383,1.9383,1.9383,1.9383,0,1.8977,1.9007,1.9036,1.9078,1.9089,1.9103,1.9139,1.9155,1.9178,1.9204,1.9211,1.9246,1.9274,1.9302,1.9339,1.9352,1.9379,1.9385,1.9369,1.9371,1.9378,1.9377,1.9395,1.9399,1.9397,1.9397,1.9397,0,1.8975,1.8991,1.9035,1.9052,1.9071,1.9096,1.9115,1.9145,1.9164,1.9202,1.9214,1.9245,1.9271,1.9316,1.9344,1.9374,1.9381,1.9386,1.9385,1.9378,1.9381,1.9379,1.9382,1.9384,1.9384,1.9384,1.9384,0,1.8969,1.8984,1.9011,1.9044,1.9067,1.9093,1.9121,1.9133,1.9169,1.9189,1.922,1.9241,1.9282,1.9313,1.9347,1.9366,1.9381,1.9385,1.9388,1.938,1.937,1.9376,1.9367,1.9383,1.9383,1.9383,1.9383,1.9383,1.896,1.8976,1.9011,1.9041,1.9066,1.9093,1.9112,1.9138,1.9165,1.9201,1.9218,1.925,1.9283,1.9331,1.9351,1.9376,1.9379,1.9384,1.9385,1.9386,1.9385,1.9368,1.9383,1.9383,1.9383,1.9383,1.9383,0,1.8955,1.898,1.9008,1.9048,1.9072,1.9088,1.912,1.9139,1.9167,1.9198,1.9225,1.9262,1.9293,1.9326,1.9359,1.9374,1.9382,1.9381,1.938,1.9384,1.938,1.9373,1.9375,1.9375,1.9375,1.9375,1.9375,1.9375,1.8955,1.8984,1.9004,1.9047,1.9072,1.9104,1.9122,1.9147,1.9172,1.9213,1.924,1.9262,1.9295,1.9331,1.9361,1.937,1.9381,1.9379,1.939,1.9384,1.9384,1.9385,1.9379,1.9382,1.9382,1.9393,1.9393,1.9393]}]]